#timestamp,LO_Frequency,Hit,StdDev 
1504364415.2,286047000.4,N,1.1
1504364435.0,286047000.6,N,1.1
1504364435.9,286047000.6,N,1.1
1504364455.8,286047001.1,N,1.1
1504364475.6,286047000.7,N,1.1
1504364495.5,286047001.0,N,1.0
1504364515.3,286047000.6,N,1.0
1504364535.1,286047000.9,N,1.0
1504364555.9,286047000.5,N,1.0
1504364575.7,286047001.1,N,1.0
1504364595.5,286047000.8,N,1.0
1504364615.4,286046998.7,N,1.0
1504364635.2,286047000.7,N,1.0
1504364655.1,286047000.7,N,1.0
1504364656.0,286047000.7,N,0.9
1504364675.8,286046998.6,N,1.0
1504364695.6,286046998.3,N,1.0
1504364715.5,286046998.5,N,1.1
1504364735.3,286046998.8,N,1.1
1504364755.1,286047000.7,N,1.1
1504364775.9,286046998.9,N,1.1
1504364795.7,286046998.1,N,1.1
1504364815.6,286046998.4,N,1.1
1504364835.4,286046998.3,N,1.1
1504364855.2,286046998.9,N,1.1
1504364875.1,286046998.1,N,1.1
1504364876.0,286046998.1,N,1.2
1504364895.8,286047000.9,N,1.2
1504364915.7,286047001.0,N,1.2
1504364935.5,286047000.2,N,1.1
1504364955.3,286046998.1,N,1.2
1504364975.2,286047000.3,N,1.2
1504364995.0,286047001.1,N,1.2
1504364995.9,286047001.1,N,1.2
1504365015.8,286047000.4,N,1.2
1504365035.6,286047000.3,N,1.2
1504365055.4,286047000.5,N,1.2
1504365075.3,286047001.1,N,1.2
1504365095.1,286047000.7,N,1.2
1504365115.9,286047000.3,N,1.1
1504365135.7,286046999.9,N,1.1
1504365155.5,286047000.6,N,1.1
1504365175.4,286047000.7,N,1.1
1504365195.2,286047001.0,N,1.1
1504365215.0,286047001.2,N,1.2
1504365215.9,286047001.2,N,1.2
1504365235.8,286047000.6,N,1.1
1504365255.6,286046998.6,N,1.1
1504365275.5,286047000.5,N,1.1
1504365295.3,286047000.5,N,1.1
1504365315.1,286047000.6,N,1.1
1504365335.9,286047001.1,N,1.0
1504365355.7,286047000.6,N,1.0
1504365375.6,286047000.5,N,0.9
1504365395.4,286047000.5,N,0.9
1504365415.2,286047000.3,N,0.8
1504365435.1,286047002.7,Y,0.0
1504365436.0,286047002.7,P,1.1
1504365455.8,286047002.5,N,1.0
1504365475.7,286047002.5,N,0.9
1504365495.5,286046998.5,N,1.6
1504365515.3,286047000.1,N,1.6
1504365535.2,286047002.3,N,1.5
1504365555.0,286047002.4,N,1.5
1504365555.9,286047002.4,N,1.4
1504365575.7,286047000.2,N,1.4
1504365595.6,286046999.9,N,1.4
1504365615.4,286047000.2,N,1.4
1504365635.3,286047002.5,N,1.4
1504365655.1,286047002.7,N,1.4
1504365675.8,286047001.8,N,1.3
1504365695.7,286047004.0,Y,0.0
1504365715.5,286047002.3,P,0.4
1504365735.4,286047001.6,P,0.4
1504365755.2,286047002.1,P,0.4
1504365775.0,286047002.1,Y,0.0
1504365775.9,286047002.1,P,0.1
1504365795.8,286047000.7,P,0.6
1504365815.6,286047000.8,N,0.6
1504365835.5,286046998.2,N,1.4
1504365855.3,286047000.8,N,1.3
1504365875.1,286047000.7,N,1.2
1504365895.9,286046998.1,N,1.4
1504365915.7,286046998.4,N,1.5
1504365935.5,286047000.6,N,1.4
1504365955.4,286047000.4,N,1.3
1504365975.2,286046998.2,N,1.4
1504365995.1,286046998.2,N,1.4
1504365996.0,286046998.2,N,1.4
1504366015.8,286046998.3,N,1.4
1504366035.6,286047001.2,N,1.4
1504366055.5,286046999.2,N,1.4
1504366075.3,286046996.5,N,1.6
1504366095.2,286046999.2,N,1.5
1504366115.9,286046997.1,N,1.6
1504366135.7,286046997.7,N,1.6
1504366155.6,286046997.7,N,1.6
1504366175.4,286046994.9,Y,0.0
1504366195.2,286046996.8,P,1.2
1504366215.1,286046997.4,N,1.1
1504366216.0,286046997.4,N,0.9
1504366235.8,286046997.8,N,0.8
1504366255.7,286046997.2,Y,0.0
1504366275.5,286046998.1,P,0.2
1504366295.3,286046998.6,P,0.4
1504366315.2,286046999.5,N,0.7
1504366335.0,286046999.2,N,0.7
1504366335.9,286046999.2,N,0.6
1504366355.8,286046999.4,N,0.6
1504366375.6,286046996.9,Y,0.0
1504366395.4,286046998.7,P,0.1
1504366415.3,286047001.2,P,1.2
1504366435.1,286046999.1,N,1.0
1504366455.9,286046997.1,N,1.3
1504366475.7,286046997.0,N,1.4
1504366495.5,286046997.1,N,1.4
1504366515.4,286046997.4,N,1.4
1504366535.2,286046997.1,N,1.3
1504366555.0,286046998.4,N,1.3
1504366556.0,286046998.4,N,1.2
1504366575.8,286046997.4,N,1.2
1504366595.6,286046997.0,N,1.2
1504366615.5,286682702.8,Y,0.0
1504366635.3,286046998.3,P,0.1
1504366655.2,286046998.8,P,0.3
1504366675.9,286046998.9,P,0.3
1504366695.7,286046996.7,Y,0.0
1504366715.6,286046999.3,P,0.4
1504366735.4,286046998.7,P,0.3
1504366755.2,286046999.0,P,0.3
1504366775.1,286046998.6,Y,0.0
1504366776.0,286046998.6,P,0.1
1504366795.8,286046998.5,P,0.2
1504366815.7,286046998.2,P,0.2
1504366835.5,286046998.1,Y,0.0
1504366855.3,286046999.7,P,0.6
1504366875.2,286046998.1,P,0.7
1504366895.0,286047000.3,N,0.9
1504366895.9,286047000.3,N,0.9
1504366915.8,286047001.2,N,1.1
1504366935.6,286042236.9,Y,0.0
1504366955.4,286047000.4,P,0.4
1504366975.3,286047000.3,N,0.3
1504366995.1,286047000.8,N,0.4
1504367015.9,286047001.2,N,0.5
1504367035.7,286047000.9,N,0.5
1504367055.5,286047000.4,N,0.5
1504367075.4,286047000.8,N,0.4
1504367095.2,286046998.8,N,0.7
1504367115.1,286046998.8,N,0.8
1504367116.0,286046998.8,N,0.9
1504367135.8,286047001.2,N,0.9
1504367155.6,286046998.5,N,1.0
1504367175.5,286046998.2,N,1.0
1504367195.3,286046998.3,N,1.1
1504367215.1,286046998.9,N,1.1
1504367235.9,286046998.4,N,1.1
1504367255.7,286046998.6,N,1.1
1504367275.6,286046998.6,N,1.1
1504367295.4,286046998.3,N,1.1
1504367315.2,286047001.2,N,1.1
1504367335.1,286046998.3,N,1.1
1504367336.0,286046998.3,N,1.1
1504367355.8,286046998.4,N,1.1
1504367375.7,286047000.9,N,1.1
1504367395.5,286046998.6,N,1.1
1504367415.3,286046996.6,Y,0.0
1504367435.2,286046998.8,P,0.3
1504367455.0,286046998.7,P,0.3
1504367455.9,286046998.7,P,0.3
1504367475.8,286046998.6,Y,0.0
1504367495.6,286047001.0,P,1.0
1504367515.4,286047001.1,N,1.0
1504367535.3,286047002.8,N,1.4
1504367555.1,286047000.5,N,1.2
1504367575.9,286047000.6,N,1.1
1504367595.7,286047001.0,N,1.1
1504367615.5,286047000.8,N,1.0
1504367635.4,286047001.2,N,0.9
1504367655.2,286046998.1,N,1.2
1504367675.0,286046998.3,N,1.3
1504367675.9,286046998.3,N,1.4
1504367695.8,286046998.2,N,1.5
1504367715.6,286046998.2,N,1.5
1504367735.5,286047000.7,N,1.4
1504367755.3,286047000.8,N,1.4
1504367775.1,286047000.5,N,1.4
1504367795.9,286047000.0,N,1.3
1504367815.7,286047000.4,N,1.3
1504367835.6,286047000.5,N,1.3
1504367855.4,286046998.4,N,1.3
1504367875.2,286046998.5,N,1.3
1504367895.1,286046998.6,N,1.3
1504367896.0,286046998.6,N,1.3
1504367915.8,286046998.9,N,1.3
1504367935.7,286046998.9,N,1.3
1504367955.5,286046998.1,N,1.3
1504367975.3,286046998.2,N,1.3
1504367995.2,286046998.4,N,1.3
